Weather History for Jackson, WY

Change the Weather History Date:

Thursday, June 13, 2013

  Actual Average Record
Temperature  
Mean Temperature 56 °F -  
Max Temperature 75 °F 69 °F 85 °F (1959)
Min Temperature 37 °F 36 °F 26 °F (1993)
Degree Days  
Heating Degree Days 9    
Growing Degree Days 6 (Base 50)    
Moisture  
Dew Point 41 °F    
Average Humidity 74    
Maximum Humidity 100    
Minimum Humidity 24    
Precipitation  
Precipitation 0.01 in - - ()
Sea Level Pressure  
Sea Level Pressure 30.09 in    
Wind  
Wind Speed 8 mph (WSW)    
Max Wind Speed 28 mph    
Max Gust Speed 36 mph    
Visibility 10 miles    
Events      
Averages and records for this station are not official NWS values.
T = Trace of Precipitation, MM = Missing Value Source: NWS Daily Summary

Daily Weather History Graph

Daily Weather History Graph

Search for Another Location

Airport:

Trip Planner

Search our weather history database for the weather conditions in past years. The results will help you decide how hot, cold, wet, or windy it might be!

Date:

Astronomy

Jun. 13, 2013 Rise Set
Actual Time 5:40 AM MDT 9:05 PM MDT
Civil Twilight 5:05 AM MDT 9:41 PM MDT
Nautical Twilight 4:18 AM MDT 10:28 PM MDT
Astronomical Twilight 3:19 AM MDT 11:27 PM MDT
Moon 10:28 AM MDT (6/13) No Moon Set
Length of Visible Light 16h 36m
Length of Day
15h 24m
Waxing Crescent, 22% of the Moon is Illuminated
Jun 13
Waxing Crescent
Jun 16
First Quarter
Jun 23
Full
Jun 29
Last Quarter
Jul 8
New

Hourly Weather History & Observations

Time (MDT) Temp. Windchill Dew Point Humidity Pressure Visibility Wind Dir Wind Speed Gust Speed Precip Events Conditions
12:15 AM 50.0 °F - 44.6 °F 82% 30.13 in 10.0 mi West 10.4 mph - N/A   Mostly Cloudy
12:35 AM 48.2 °F - 44.6 °F 87% 30.12 in 10.0 mi ENE 6.9 mph - N/A   Mostly Cloudy
12:55 AM 50.0 °F - 44.6 °F 82% 30.12 in 10.0 mi Calm Calm - N/A   Partly Cloudy
1:15 AM 46.4 °F 42.9 °F 44.6 °F 93% 30.11 in 10.0 mi WNW 6.9 mph - N/A   Scattered Clouds
1:35 AM 48.2 °F - 44.6 °F 87% 30.14 in 10.0 mi West 6.9 mph - N/A   Mostly Cloudy
1:55 AM 46.4 °F 42.4 °F 44.6 °F 93% 30.12 in 10.0 mi NE 8.1 mph - N/A   Partly Cloudy
2:15 AM 46.4 °F - 44.6 °F 93% 30.12 in 10.0 mi Calm Calm - N/A   Partly Cloudy
2:35 AM 44.6 °F 40.2 °F 42.8 °F 93% 30.10 in 10.0 mi North 8.1 mph - N/A   Clear
2:55 AM 42.8 °F 39.3 °F 42.8 °F 100% 30.10 in 10.0 mi North 5.8 mph - N/A   Clear
3:15 AM 44.6 °F 40.2 °F 42.8 °F 93% 30.09 in 10.0 mi North 8.1 mph - N/A   Partly Cloudy
3:35 AM 44.6 °F 39.7 °F 42.8 °F 93% 30.10 in 10.0 mi ENE 9.2 mph - N/A   Partly Cloudy
3:55 AM 42.8 °F 41.1 °F 41.0 °F 93% 30.09 in 10.0 mi East 3.5 mph - N/A   Clear
4:15 AM 42.8 °F 39.3 °F 41.0 °F 93% 30.09 in 10.0 mi West 5.8 mph - N/A   Clear
4:35 AM 41.0 °F 37.1 °F 39.2 °F 93% 30.09 in 10.0 mi NW 5.8 mph - N/A   Clear
4:55 AM 42.8 °F - 41.0 °F 93% 30.10 in 10.0 mi Calm Calm - N/A   Partly Cloudy
5:15 AM 42.8 °F - 41.0 °F 93% 30.10 in 10.0 mi Calm Calm - N/A   Scattered Clouds
5:55 AM 37.4 °F - 35.6 °F 93% 30.09 in 10.0 mi Calm Calm - N/A   Clear
6:15 AM 37.4 °F 34.9 °F 37.4 °F 100% 30.09 in 10.0 mi North 3.5 mph - N/A   Clear
6:51 AM 42.8 °F - 41.0 °F 93% 30.09 in 10.0 mi Calm Calm - N/A   Clear
7:51 AM 48.2 °F - 44.6 °F 87% 30.09 in 10.0 mi Calm Calm - N/A   Mostly Cloudy
8:51 AM 50.0 °F - 44.6 °F 82% 30.10 in 10.0 mi ESE 5.8 mph - N/A   Scattered Clouds
9:51 AM 53.6 °F - 46.4 °F 77% 30.08 in 10.0 mi East 6.9 mph - N/A   Mostly Cloudy
10:53 AM 60.8 °F - 42.8 °F 52% 30.06 in 10.0 mi Calm Calm - N/A   Mostly Cloudy
11:55 AM 66.2 °F - 42.8 °F 43% 30.03 in 10.0 mi South 3.5 mph - N/A   Scattered Clouds
12:51 PM 69.8 °F - 42.8 °F 38% 30.01 in 10.0 mi WSW 4.6 mph - N/A   Scattered Clouds
2:51 PM 75.2 °F - 35.6 °F 24% 29.96 in 10.0 mi SSW 16.1 mph 29.9 mph N/A   Scattered Clouds
3:55 PM 71.6 °F - 41.0 °F 33% 29.94 in 10.0 mi West 23.0 mph 34.5 mph N/A   Scattered Clouds
4:53 PM 71.6 °F - 37.4 °F 29% 29.95 in 10.0 mi WSW 20.7 mph 28.8 mph N/A   Scattered Clouds
5:51 PM 73.4 °F - 37.4 °F 27% 29.93 in 10.0 mi SW 11.5 mph 21.9 mph N/A   Partly Cloudy
6:53 PM 66.2 °F - 37.4 °F 35% 29.94 in 10.0 mi WSW 20.7 mph 34.5 mph N/A   Partly Cloudy
7:51 PM 60.8 °F - 30.2 °F 31% 29.97 in 10.0 mi West 27.6 mph 35.7 mph N/A   Scattered Clouds
8:51 PM 48.2 °F - 39.2 °F 71% 30.05 in 10.0 mi West 17.3 mph 23.0 mph N/A   Mostly Cloudy
8:55 PM 48.2 °F - 39.2 °F 71% 30.05 in 10.0 mi West 13.8 mph 23.0 mph 0.01 in   Mostly Cloudy
9:15 PM 48.2 °F - 37.4 °F 66% 30.08 in 10.0 mi West 15.0 mph 31.1 mph N/A   Mostly Cloudy
9:35 PM 48.2 °F - 37.4 °F 66% 30.21 in 10.0 mi South 17.3 mph 28.8 mph N/A   Overcast
10:15 PM 48.2 °F - 37.4 °F 66% 30.22 in 10.0 mi SSW 6.9 mph - N/A   Overcast
10:35 PM 46.4 °F 39.2 °F 37.4 °F 71% 30.21 in 10.0 mi SSE 18.4 mph 21.9 mph N/A   Overcast
10:55 PM 46.4 °F 41.1 °F 41.0 °F 81% 30.20 in 10.0 mi SE 11.5 mph - N/A   Overcast
11:15 PM 46.4 °F 41.1 °F 39.2 °F 76% 30.16 in 10.0 mi ESE 11.5 mph - N/A   Overcast
11:35 PM 46.4 °F 41.9 °F 39.2 °F 76% 30.16 in 10.0 mi West 9.2 mph - N/A   Overcast
11:55 PM 44.6 °F 43.1 °F 39.2 °F 81% 30.14 in 10.0 mi West 3.5 mph - N/A   Mostly Cloudy